Location: G�kdere
(37.0328°N, 30.9000°E)
Time: 02:25:22
(UTC+00:00)

Cosmos 1486 Rocket - Pass Details

Date: 03 March 2021
Orbit: 758 x 784 km, 74.1° (Epoch: 22 April)

Event Time Altitude Azimuth Distance (km) Brightness Sun altitude
Rises 16:14:18 0° 349° (N) 3,254 7.3 -5.1°
Reaches altitude 10° 16:16:50 10° 357° (N) 2,327 6.5 -5.7°
Maximum altitude 16:21:48 40° 67° (ENE) 1,128 4.5 -6.6°
Drops below altitude 10° 16:26:46 10° 137° (SE) 2,328 6.1 -7.6°
Sets 16:29:17 0° 144° (SE) 3,255 6.9 -8.1°
